Home   Weather   Curitiba   Past weeks

Flag for Brazil Past Weather in Curitiba, Paraná, Brazil — Yesterday and Last 2 Weeks

Now
77 °F

Partly sunny.


Feels Like: 79 °F
Forecast: 65 / 75 °F
Wind: 13 mph from Northwest

Location: Curitiba Aeroporto

Current Time: Jan 17, 2017 at 1:28:36 pm

Latest Report: Jan 17, 2017 at 1:00 pm


Visibility: N/A

Pressure: 29.83 "Hg (26.86 "Hg at 915m altitude)

Humidity: 69%

Dew Point: 66 °F

Location of CuritibaLocation

Past Weather in Curitiba — Graph

°F

Curitiba Temperature Yesterday

Maximum temperature yesterday: 77 °F (at 11:00 am)
Minimum temperature yesterday: 64 °F (at 5:00 am)
Average temperature yesterday: 71 °F

High & Low Weather Summary for the Past Weeks

 TemperatureHumidityPressure
High88 °F (Jan 9, 4:00 pm)100% (Jan 3, 12:00 am)30.15 "Hg (Jan 3, 12:00 am)
Low57 °F (Jan 13, 6:00 am)21% (Jan 14, 5:00 pm)29.83 "Hg (Jan 17, 5:00 am)
Average72 °F82%30.00 "Hg
* Reported Jan 2 12:00 pm — Jan 17 12:00 pm, Curitiba, Weather by CustomWeather, © 2017

Note: Actual official high and low records may vary slightly from our data, if they occured in-between our weather recording intervals... More about our weather records

Advertising

Curitiba Weather History for the Previous 24 Hours

Scroll right to see more
 ConditionsComfort  
Time TempWeatherWind HumidityBarometerVisibility
12:00 pm
Tue, Jan 17
73 °FMostly cloudy.14 mph83%29.83 "HgN/A
11:00 am72 °FMore clouds than sun.7 mph83%29.86 "HgN/A
10:00 am72 °FMostly cloudy.7 mph88%29.86 "HgN/A
9:00 am70 °FMostly cloudy.6 mph94%29.86 "HgN/A
8:00 am68 °FLow clouds.6 mph100%29.83 "HgN/A
7:00 am68 °FPartly sunny.5 mph94%29.86 "HgN/A
6:00 am68 °FLight rain. Overcast.2 mph94%29.86 "Hg6 mi
5:00 am68 °FRain. Overcast.8 mph94%29.83 "Hg5 mi
4:00 am68 °FRain. Overcast.3 mph94%29.86 "Hg4 mi
3:00 am68 °FLight rain. Overcast.3 mph94%29.89 "Hg5 mi
2:00 am68 °FLight rain. Overcast.5 mph94%29.92 "Hg5 mi
1:00 am68 °FPartly cloudy.5 mph94%29.92 "HgN/A
12:00 am68 °FPassing clouds.5 mph94%29.95 "HgN/A
11:35 pm
Mon, Jan 16
68 °FMostly cloudy.5 mph94%29.95 "HgN/A
11:00 pm68 °FPartly cloudy.8 mph100%29.95 "HgN/A
10:00 pm68 °FLight rain. Partly cloudy.9 mph94%29.92 "Hg6 mi
9:00 pm70 °FLight rain. Partly cloudy.7 mph94%29.89 "HgN/A
8:30 pm70 °FLight rain. Passing clouds.7 mph94%29.89 "HgN/A
8:00 pm72 °FCloudy.6 mph88%29.89 "HgN/A
7:00 pm73 °FPartly sunny.6 mph89%29.86 "HgN/A
6:00 pm70 °FLight rain. Partly sunny.2 mph94%N/AN/A
5:43 pm73 °FRain showers. Broken clouds.12 mph83%N/A2 mi
5:00 pm77 °FPartly sunny.5 mph69%29.86 "HgN/A
4:00 pm77 °FPartly sunny.7 mph74%29.89 "HgN/A
3:00 pm77 °FOvercast.7 mph65%29.92 "HgN/A
2:00 pm75 °FPartly sunny.6 mph69%29.95 "HgN/A
1:00 pm75 °FPartly sunny.9 mph69%29.98 "HgN/A
Weather by CustomWeather, © 2017

See weather overviewHow to use our weather pages